Location: Sobotiste
(48.7170°N, 17.4000°E)
Time: 21:35:13
(UTC+01:00)

AO-91 - Visible Passes

Search period start: 16 March 2026 00:00
Search period end: 26 March 2026 00:00
Orbit: 427 x 639 km, 97.5° (Epoch: 16 March)

Date Brightness Start Highest point End Pass type
(mag) Time Alt. Az. Time Alt. Az. Time Alt. Az.
16 Mar ? 21:02:23 10° NNE 21:03:42 19° NNE 21:03:42 19° NNE visible
16 Mar ? 22:38:24 10° NNW 22:39:04 12° NW 22:39:04 12° NW visible
17 Mar ? 20:52:54 10° NNE 20:54:16 19° NNE 20:54:16 19° NNE visible
17 Mar ? 22:28:29 10° NNW 22:29:38 14° NW 22:29:38 14° NW visible
18 Mar ? 20:43:26 10° NNE 20:44:49 19° NNE 20:44:49 19° NNE visible
18 Mar ? 22:18:40 10° NNW 22:20:11 16° NW 22:20:11 16° NW visible
19 Mar ? 20:33:59 10° NNE 20:35:19 19° NNE 20:35:19 19° NNE visible
19 Mar ? 22:08:54 10° NNW 22:10:41 18° NNW 22:10:41 18° NNW visible
20 Mar ? 20:24:32 10° NNE 20:25:49 18° NE 20:25:49 18° NE visible
20 Mar ? 21:59:10 10° N 22:01:11 21° NNW 22:01:11 21° NNW visible
21 Mar ? 20:15:08 10° NNE 20:16:18 16° NE 20:16:18 16° NE visible
21 Mar ? 21:49:28 10° N 21:51:40 24° NNW 21:51:40 24° NNW visible
22 Mar ? 20:05:46 10° NE 20:06:45 15° NE 20:06:45 15° NE visible
22 Mar ? 21:39:47 10° N 21:42:07 27° NNW 21:42:07 27° NNW visible
23 Mar ? 19:56:28 10° NE 19:57:10 13° NE 19:57:10 13° NE visible
23 Mar ? 21:30:06 10° N 21:32:32 29° NNW 21:32:32 29° NNW visible
24 Mar ? 19:47:15 10° NE 19:47:35 11° NE 19:47:35 11° NE visible
24 Mar ? 21:20:27 10° N 21:22:57 32° N 21:22:57 32° N visible
25 Mar ? 21:10:47 10° N 21:13:20 34° N 21:13:20 34° N visible
25 Mar ? 22:47:43 10° NW 22:48:38 11° NW 22:48:41 11° NW visible
